Location: Malaya Timofeyevka
(51.2178°N, 71.7012°E)
Time: 13:04:28
(UTC+00:00)

Daily predictions for brighter satellites

Satellite Brightness Start Highest point End
(mag) Time Altitude Azimuth Time Altitude Azimuth Time Altitude Azimuth
Cosmos 1624 Rocket 4.3 16:08:18 10° SSW 16:13:38 79° WNW 16:18:57 10° NNE
Cosmos 1975 Rocket 3.7 16:11:53 10° SSE 16:15:54 38° E 16:19:58 10° NNE
Cosmos 1908 4.0 16:14:52 10° N 16:18:34 40° ENE 16:22:13 10° SE
Cosmos 2333 Rocket 4.0 16:17:18 10° SE 16:20:14 14° E 16:23:10 10° ENE
CZ-2C R/B 3.8 16:15:36 10° NNE 16:20:24 78° ESE 16:25:11 10° S
Cosmos 1726 2.9 16:17:13 10° NNW 16:20:46 50° W 16:24:17 10° S
In-Cosmos 22 4.2 16:16:36 10° S 16:21:45 57° E 16:26:57 10° NNE
Cosmos 1707 2.8 16:24:39 10° S 16:28:31 85° W 16:32:27 10° N
Cosmos 1953 2.6 16:24:44 10° N 16:28:46 58° ENE 16:32:46 10° SSE
Cosmos 2173 Rocket 4.2 16:22:33 10° N 16:28:54 63° ENE 16:35:14 10° SSE
Aureole 1 Rocket 4.1 16:24:47 10° NNW 16:30:04 63° ENE 16:36:59 10° SE
Cosmos 1844 4.1 16:27:09 10° NNW 16:32:40 57° NE 16:38:10 10° SE
Cosmos 1461 3.1 16:28:23 10° NW 16:32:42 69° NE 16:36:47 10° SE
ARIANE 5 R/B 2.7 16:28:31 10° SSE 16:32:58 86° WSW 16:37:30 10° NNW
Cosmos 1452 Rocket 3.6 16:32:28 10° S 16:37:41 64° ESE 16:42:55 10° NNE
NOSS 3-2 (C) 3.4 16:34:02 10° SW 16:39:45 81° SE 16:46:26 10° NE
NOSS 3-2 (A) 3.8 16:34:19 10° SW 16:40:05 71° NW 16:46:52 10° NE
Cosmos 2219 Rocket 3.8 16:36:43 10° SE 16:40:20 17° E 16:43:56 10° ENE
Cosmos 1727 Rocket 4.1 16:34:13 10° S 16:40:33 89° E 16:46:53 10° N
SPOT 1/Viking Rocket 4.3 16:36:02 10° S 16:41:01 51° W 16:46:03 10° NNW
Cosmos 1725 Rocket 4.5 16:35:54 10° N 16:41:52 47° ENE 16:47:38 11° SE
Cosmos 1850 Rocket 4.2 16:40:10 10° NNW 16:45:30 76° WSW 16:50:43 10° SSE
Cosmos 2285 Rocket 4.3 16:42:16 10° SSW 16:48:43 76° WNW 16:55:12 10° NNE
ATLAS 3B R/B 3.7 16:44:56 10° SSE 16:50:03 25° ESE 16:55:16 10° ENE
ATLAS CENTAUR R/B 2.2 16:47:24 10° NW 16:51:31 48° NE 16:55:52 10° ESE
SPOT 5 3.1 16:46:33 10° SSE 16:51:45 80° WSW 16:56:44 10° NNW
Cosmos 405 3.9 16:49:03 10° N 16:52:15 34° ENE 16:54:57 13° SE
Cosmos 1802 Rocket 4.1 16:46:17 10° N 16:52:33 74° ENE 16:58:40 11° SSE
Cosmos 1544 Rocket 3.6 16:51:40 10° N 16:56:09 73° E 17:00:11 13° SSE
SL-16 R/B 2.3 16:51:42 10° SSW 16:57:23 82° WNW 17:03:07 10° NNE
Cosmos 292 Rocket 4.1 16:52:45 10° SSW 16:57:35 70° WNW 17:02:26 10° NNE
Spot 2 Rocket 4.3 16:55:35 10° S 17:00:27 48° W 17:05:23 10° NNW
Cosmos 2360 Rocket 2.3 16:55:11 10° S 17:00:41 55° ESE 17:06:11 10° NE
Cosmos 2322 Rocket 2.2 16:55:22 10° SSW 17:01:05 86° ESE 17:06:50 10° NNE
Cosmos 1455 Rocket 3.4 16:56:53 10° NNW 17:01:18 65° W 17:05:43 10° S
Meteor 1-16 Rocket 4.4 16:56:53 10° NNW 17:02:25 69° W 17:07:45 10° S
Lacrosse 5 3.3 17:01:44 10° WNW 17:05:55 26° SW 17:09:49 11° S
Cosmos 1331 Rocket 4.2 17:01:17 10° S 17:06:20 52° ESE 17:11:29 10° NNE
USA 215 3.7 17:01:06 10° ENE 17:07:05 37° SE 17:13:02 10° SSW
Terra 1.9 17:05:09 12° S 17:09:35 76° WSW 17:14:22 10° NNW
H-2A R/B 3.6 17:05:42 10° NNE 17:09:45 55° ESE 17:13:20 13° S
ERS-1 Rocket 3.5 17:04:57 10° S 17:09:54 56° W 17:14:54 10° NNW
Cosmos 1626 2.1 17:06:45 12° S 17:10:08 68° E 17:13:50 10° NNE
KORONAS-FOTON 4.1 17:07:01 10° SSW 17:10:48 68° WNW 17:14:36 10° N
COSMOS 2428 3.9 17:07:43 14° SSE 17:11:21 25° ESE 17:15:54 10° NE
DNEPR-1 R/B 3.6 17:09:20 10° NW 17:13:35 70° NE 17:17:19 14° SE
USA 238 DEB 4.3 17:08:44 10° WSW 17:15:18 63° NW 17:22:17 10° NE
USA 238 4.2 17:08:50 10° WSW 17:15:24 63° NW 17:22:23 10° NE
Cosmos 2322 4.4 17:10:59 12° S 17:15:34 36° ESE 17:20:41 10° NE
Cosmos 1867 4.4 17:10:16 10° NW 17:15:34 46° NE 17:20:51 10° ESE
Cosmos 1459 Rocket 4.2 17:10:11 10° NNW 17:16:12 66° W 17:22:10 10° S
Cosmos 2237 4.2 17:11:06 10° SSW 17:16:48 83° ESE 17:22:32 10° NNE
Genesis I 4.0 17:17:36 10° WSW 17:21:25 54° NW 17:25:20 10° NE
Cosmos 2278 Rocket 3.4 17:16:29 10° NNW 17:21:43 36° NE 17:26:56 10° ESE
Cosmos 2061 Rocket 4.1 17:18:10 10° N 17:24:40 86° W 17:30:19 14° S
FALCON 9 DEB 3.7 17:23:54 10° SSW 17:27:02 34° SSE 17:30:10 10° E
Meteor 2-5 Rocket 4.0 17:23:13 15° SSE 17:27:44 54° E 17:33:10 10° NNE
BREEZE-M DEB (TANK) 3.2 17:26:52 10° SW 17:29:43 54° SSE 17:37:06 10° E
Cosmos 1536 Rocket 3.7 17:27:12 15° S 17:30:47 65° E 17:35:13 10° NNE
CENTAUR R/B 3.5 17:25:09 10° WSW 17:31:18 57° NW 17:38:43 10° NE
Cosmos 1455 4.0 17:29:20 10° NNE 17:32:20 21° ENE 17:34:55 12° ESE
Cosmos 1674 4.1 17:33:05 10° SW 17:36:32 35° WNW 17:39:58 10° N
Cosmos 1844 Rocket 3.3 17:31:16 10° NW 17:36:42 47° WSW 17:41:08 15° S
Cosmos 1300 2.7 17:35:31 10° NNW 17:39:21 79° W 17:41:55 20° S
USA 267 3.3 17:36:12 10° ESE 17:42:46 89° SW 17:49:22 10° WNW
Cosmos 1346 Rocket 3.8 17:40:53 19° SE 17:42:58 32° E 17:46:35 10° NNE
Cosmos 2123 Rocket 4.1 17:39:33 10° SSW 17:45:48 81° W 17:52:11 10° N
Cosmos 1025 Rocket 3.8 17:43:59 10° SSW 17:48:15 50° WNW 17:52:31 10° N
Spot 4 4.0 17:47:24 19° SSE 17:50:48 64° ENE 17:55:34 10° N
Cosmos 1486 Rocket 4.2 17:46:26 10° NNW 17:51:41 68° ENE 17:55:30 18° SE
Lacrosse 5 rocket 1.3 17:49:07 12° SSW 17:52:10 41° SE 17:55:34 10° ENE
Cosmos 389 Rocket 2.8 17:50:15 10° N 17:53:38 53° ENE 17:55:26 24° SE
Cosmos 2333 4.2 17:48:34 10° SSW 17:54:19 77° ESE 18:00:03 10° NNE
SL-8 R/B 4.3 17:50:15 10° W 17:54:38 36° SSW 17:57:12 21° SSE
Cosmos 2233 Rocket 4.0 17:48:42 10° N 17:54:52 84° W 17:59:36 18° S
Cosmos 2228 3.1 17:51:21 10° N 17:55:46 71° ENE 17:58:34 22° SSE
GEOS 3 Rocket 4.0 17:57:29 20° SSE 18:01:10 54° SW 18:06:25 10° NW
Cosmos 2333 Rocket 2.2 17:58:03 11° SSW 18:03:33 76° ESE 18:09:17 10° NNE
COBE Rocket 4.2 18:01:09 19° SSE 18:04:41 62° ENE 18:09:36 10° N
Cosmos 1340 3.5 18:02:12 12° SSW 18:05:28 48° WNW 18:09:09 10° N
Cosmos 968 Rocket 3.5 18:05:12 10° NNW 18:10:18 70° WSW 18:13:36 22° S
FALCON 9 DEB 4.4 18:11:33 21° ESE 18:11:33 21° ESE 18:13:15 10° E
Cosmos 1943 Rocket 4.2 18:07:01 10° NNW 18:11:22 23° NE 18:15:42 10° E
Cosmos 2058 Rocket 3.8 18:07:42 10° N 18:12:01 44° ENE 18:14:46 20° SE
Cosmos 1992 Rocket 4.5 18:10:52 22° SSE 18:13:55 44° ESE 18:18:53 10° NE
FALCON 9 DEB 4.2 18:19:59 24° ESE 18:19:59 24° ESE 18:21:58 10° E
Meteor 1-24 Rocket 3.7 18:16:27 16° SSW 18:20:45 75° WNW 18:26:16 10° N
NOSS 0 Rocket 4.5 18:18:09 21° S 18:21:54 43° ESE 18:27:44 10° NE
Cosmos 2219 Rocket 2.2 18:18:13 12° SSW 18:23:29 89° SE 18:29:13 10° NNE
Cosmos 1726 Rocket 3.6 18:20:57 10° N 18:25:27 89° NW 18:28:02 25° S
BREEZE-M DEB (TANK) 2.6 18:25:54 10° WSW 18:29:03 64° SSE 18:37:40 10° E
ATLAS CENTAUR R/B 2.6 18:26:27 10° WNW 18:30:18 32° WSW 18:32:16 22° SSW
SL-16 R/B 4.1 18:28:46 11° SE 18:31:19 15° E 18:34:17 10° ENE
Meteor 2-10 Rocket 4.0 18:31:30 10° NNW 18:36:26 49° W 18:39:37 20° SSW
Cosmos 2237 Rocket 2.8 18:33:41 22° SSE 18:36:42 40° ESE 18:41:55 10° NE
Cosmos 1464 Rocket 4.1 18:30:33 10° N 18:36:56 79° E 18:41:20 22° SSE
ALOS 2 2.6 18:36:10 26° S 18:38:38 81° WSW 18:43:04 10° NNW
Cosmos 1606 Rocket 4.0 18:34:33 10° NNW 18:38:56 54° W 18:41:29 23° SSW
ATLAS 3B R/B 2.6 18:33:21 10° SW 18:39:56 87° NW 18:46:49 10° NE
Cosmos 1892 Rocket 3.5 18:40:46 26° S 18:43:14 79° E 18:47:41 10° NNE
Cosmos 2360 Rocket 3.8 18:39:49 10° WSW 18:44:57 35° NW 18:50:06 10° NNE
Cosmos 2369 Rocket 4.4 18:40:43 10° NNW 18:45:17 24° NE 18:49:50 10° E
Cosmos 2322 Rocket 4.4 18:41:11 10° W 18:45:52 25° NW 18:50:34 10° NNE
SJ 16-02 3.1 18:43:58 10° N 18:47:44 27° NE 18:51:28 10° ESE
Terra 4.3 18:46:45 10° WSW 18:48:10 11° W 18:49:36 10° WNW
Cosmos 1184 Rocket 2.9 18:48:41 36° SSE 18:49:47 61° E 18:53:01 10° NNE
Cosmos 1503 Rocket 4.1 18:45:12 10° NNW 18:50:35 72° WSW 18:53:52 24° S
USA 215 3.3 18:44:00 10° ENE 18:50:35 90° NNW 18:57:09 10° WSW
MTI 3.7 18:51:51 10° NNE 18:54:53 62° ESE 18:55:47 39° SSE
COSMOS 2428 3.0 18:49:40 11° SW 18:55:08 69° WNW 19:00:55 10° NNE
SAR-Lupe-2 3.7 18:52:34 10° NNE 18:56:09 61° ESE 18:57:36 32° S
Cosmos 1607 4.0 18:51:25 10° NW 18:57:51 77° SW 19:02:36 19° SSE
Iridium 2 4.3 18:56:09 23° SW 18:58:11 47° W 19:01:50 10° N
Cosmos 1867 4.1 18:54:00 10° NW 18:59:13 45° WSW 19:02:06 24° S
Cosmos 2297 4.4 18:56:49 10° NNW 19:02:19 50° NE 19:07:47 10° SE
Thor Agena Rocket 3.9 18:58:19 10° NNE 19:03:30 54° E 19:06:30 24° S
FALCON 9 DEB 3.2 19:00:20 10° W 19:03:45 78° NNW 19:07:10 10° ENE
Elektron 1 3.9 19:01:41 10° NW 19:04:58 71° NE 19:06:54 19° ESE
Cosmos 2278 Rocket 2.5 19:00:33 10° NW 19:06:02 52° WSW 19:09:16 24° S
Cosmos 1455 3.1 19:04:29 10° NNW 19:08:05 38° W 19:09:47 24° SW
Cosmos 2034 Rocket 4.0 19:03:18 10° N 19:09:33 86° W 19:13:39 23° S
Cosmos 1626 Rocket 3.8 19:12:45 27° SSE 19:15:05 61° E 19:19:28 10° NNE
Cosmos 1346 Rocket 4.5 19:16:21 12° WSW 19:19:22 27° WNW 19:22:50 10° N
Cosmos 1602 Rocket 4.1 19:18:41 25° SSE 19:21:03 51° E 19:25:25 10° NNE
FALCON 9 DEB 2.8 19:20:46 34° SW 19:21:53 59° SSE 19:24:59 10° ENE
USA 267 3.9 19:22:46 22° S 19:26:16 36° SW 19:32:14 10° WNW
SL-4 R/B 2.7 19:26:33 28° SSE 19:26:43 28° SSE 19:29:53 10° E
Meteor 1-4 Rocket 2.4 19:25:42 10° NNW 19:29:14 74° W 19:30:36 34° S
Lacrosse 5 rocket 1.9 19:27:43 10° W 19:31:13 48° NNW 19:34:44 10° NE
Okean 1-7 Rocket 3.9 19:29:58 23° SSW 19:32:35 60° WNW 19:37:01 10° N
SL-16 R/B 4.1 19:27:15 10° ESE 19:32:37 32° ENE 19:37:58 10° N
Tsikada Rocket 4.0 19:31:25 23° S 19:35:33 82° E 19:41:45 10° NNE
Helios 1A 4.0 19:34:12 14° SE 19:37:30 41° ENE 19:41:27 10° N
GENESIS II 4.1 19:36:08 25° SW 19:38:20 86° SE 19:42:16 10° NE
Cosmos 1777 Rocket 4.1 19:38:19 10° NNW 19:43:32 61° WSW 19:46:44 23° S
FALCON 9 DEB 2.8 19:43:26 14° WSW 19:46:01 88° NNW 19:49:07 10° ENE
Cosmos 1980 4.0 19:41:52 16° SW 19:46:23 68° WNW 19:52:06 10° NNE
FALCON 9 DEB 2.7 19:44:43 19° WSW 19:46:50 83° SSE 19:49:58 10° ENE
Cosmos 2333 Rocket 4.0 19:43:31 10° W 19:48:25 28° NW 19:53:18 10° NNE
Cosmos 1408 4.2 19:46:41 17° SE 19:48:40 26° E 19:51:48 10° NNE
Cosmos 1703 4.4 19:49:36 19° SW 19:51:52 36° WNW 19:55:33 10° N
Cosmos-2242 3.1 19:47:57 10° N 19:52:22 78° ENE 19:55:09 22° SSE
Cosmos 1812 Rocket 3.7 19:50:18 10° NNW 19:54:36 62° W 19:56:56 26° SSW
FALCON 9 DEB 2.8 19:51:53 12° WSW 19:54:41 84° NNW 19:57:49 10° ENE
Aureole 3 3.1 19:51:22 10° NNW 19:54:46 78° W 19:56:52 27° S
ATLAS CENTAUR R/B 3.9 19:50:31 17° SW 19:55:24 72° SE 20:11:19 10° ENE
Cosmos 1943 Rocket 2.1 19:50:22 10° NNW 19:55:55 88° ENE 20:00:49 13° SSE
Cosmos 1328 4.4 19:55:44 23° SW 19:57:49 46° WNW 20:01:36 10° N
GP-B 3.4 19:53:40 10° N 19:58:02 56° W 20:00:33 24° SSW
Cosmos 1441 Rocket 4.5 19:57:18 18° SW 19:59:36 33° WNW 20:03:08 10° N
CZ-4 R/B 4.4 19:55:43 10° NNE 20:00:13 47° E 20:03:09 20° SSE
Lacrosse 4 Rocket 4.4 20:03:15 10° N 20:06:00 17° NNE 20:08:44 10° ENE
Cosmos 1892 3.2 20:04:22 23° SSE 20:06:31 52° E 20:10:19 10° NNE
Cosmos 2219 Rocket 4.2 20:03:38 10° W 20:08:13 24° NW 20:12:50 10° NNE
USA 229 DEB 4.5 20:07:43 18° S 20:11:46 36° ESE 20:17:51 10° NE
USA 229 4.5 20:07:50 18° S 20:11:53 35° ESE 20:17:56 10° NE
SL-16 R/B 2.2 20:10:37 21° SSW 20:14:30 77° ESE 20:20:12 10° NNE
Resurs 1-4 Rocket 3.2 20:10:44 10° NNE 20:15:36 35° E 20:19:49 13° SSE
OPS 6432 4.2 20:13:02 10° NW 20:15:59 63° SW 20:18:22 18° SSE
Cosmos 1898 Rocket 4.0 20:11:18 10° NNW 20:16:33 61° ENE 20:21:42 10° SE
Cosmos 990 Rocket 4.2 20:11:46 10° NNW 20:16:59 73° ENE 20:22:09 10° SSE
CZ-2D R/B 3.1 20:15:14 10° NNE 20:20:03 36° E 20:24:12 13° SSE
Cosmos 2237 Rocket 3.1 20:15:29 10° WSW 20:20:45 44° NW 20:26:09 10° NNE
Cosmos 2221 3.7 20:17:23 10° N 20:21:29 39° ENE 20:25:30 10° SE
NOSS 3-1 (C) 3.6 20:18:55 21° SSW 20:22:30 56° SE 20:28:42 10° NE
EO 1 Del DPAF 3.7 20:19:43 10° N 20:23:21 51° WNW 20:25:30 22° SW
Cosmos 1937 Rocket 4.3 20:18:11 10° NNW 20:23:26 53° ENE 20:28:37 10° SE
SJ 16-02 1.8 20:22:19 10° NW 20:26:28 43° WSW 20:28:52 22° SSW
Cosmos 1825 Rocket 3.6 20:24:42 22° SSW 20:27:33 84° W 20:32:03 10° N
Cosmos 2369 Rocket 2.3 20:24:23 10° NNW 20:30:09 86° ENE 20:35:53 10° SSE
X-37B 2.6 20:31:27 15° SE 20:31:27 15° SE 20:32:53 10° ESE
NOSS 2-3 (E) 4.1 20:28:30 22° S 20:30:55 47° SE 20:35:38 10° NE
NOSS 3-1 (A) 4.0 20:27:38 18° S 20:31:12 39° ESE 20:36:59 10° NE
ATLAS 3B R/B 4.1 20:25:22 10° W 20:31:29 36° NNW 20:37:50 10° NE
USA 215 4.0 20:27:02 10° ENE 20:33:24 57° N 20:39:47 10° W
Cosmos 405 Rocket 3.1 20:31:29 20° SSE 20:33:49 51° E 20:37:25 10° NNE
Cosmos 2263 4.5 20:28:18 10° NNW 20:34:02 72° ENE 20:39:41 10° SE
ADEOS II 3.8 20:31:14 10° NE 20:35:37 26° E 20:39:57 10° SSE
Cosmos 2279 Rocket 4.1 20:30:03 10° NNW 20:36:15 67° W 20:41:09 17° S
FALCON 9 DEB 3.5 20:37:25 10° WNW 20:40:49 66° N 20:44:12 10° E
Cosmos 1656 Rocket 3.9 20:39:23 10° NNW 20:45:08 76° ENE 20:50:49 10° SE
Cosmos 1825 2.3 20:42:52 19° S 20:45:26 68° E 20:49:11 10° NNE
Cosmos 2297 4.5 20:41:17 10° NW 20:46:19 34° WSW 20:49:54 17° SSW
USA 281 4.2 20:42:47 10° ESE 20:49:03 49° NE 20:55:21 10° NNW
Cosmos 1953 Rocket 3.6 20:46:37 19° SSW 20:49:39 76° WNW 20:54:04 10° N
Cosmos 468 Rocket 4.1 20:53:28 17° SSW 20:57:28 73° ESE 21:02:41 10° NNE
FALCON 9 DEB 3.4 20:54:31 10° W 20:57:38 61° N 21:00:45 10° ENE
Cosmos 2098 Rocket 3.9 20:53:04 12° S 20:58:29 65° E 21:03:13 10° NNE
Cosmos 1356 3.7 20:57:38 20° SW 20:59:44 53° WNW 21:03:06 10° N
UNK 3.7 20:55:59 11° SSE 21:00:20 81° WSW 21:05:00 10° NNW
ATLAS 5 CENTAUR R/B 4.0 21:00:52 10° ESE 21:01:05 10° ESE 21:01:18 10° ESE
Cosmos 1869 4.4 20:58:00 10° NNW 21:01:37 31° W 21:04:05 17° SW
Cosmos 2058 2.9 21:00:59 16° S 21:04:10 84° E 21:08:18 10° NNE
Aureole 3 Rocket 3.3 21:01:09 10° N 21:04:33 59° ENE 21:08:55 10° SSE
SL-4 R/B 1.6 21:02:14 10° WSW 21:05:59 79° SSE 21:09:31 10° E
ARGOS Delta rocket 4.2 21:00:48 10° NNE 21:06:18 88° WNW 21:11:05 14° SSW
Cosmos 1842 Rocket 3.5 21:02:07 10° NNW 21:06:28 80° W 21:10:34 11° S
ADEOS Rocket 3.6 20:59:40 10° SSE 21:07:03 74° ENE 21:13:45 10° NNW
SeaSat 1 4.3 21:06:01 10° NE 21:09:51 22° ESE 21:13:39 10° SSE
Lacrosse 5 rocket 2.9 21:07:35 10° WNW 21:10:51 31° N 21:14:08 10° ENE
NOSS 2-3 (D) 3.6 21:08:08 16° SW 21:11:33 87° SE 21:16:39 10° NE
Cosmos 372 Rocket 4.3 21:06:28 10° NNW 21:11:43 73° ENE 21:16:58 10° SSE
Cosmos 1437 Rocket 2.9 21:08:19 10° NNW 21:12:12 55° W 21:15:22 14° S
Helios 1A 4.3 21:10:48 15° SW 21:13:12 24° W 21:16:39 10° NW
Nadezhda 4 Rocket 4.0 21:10:19 13° SSW 21:15:52 83° W 21:22:03 10° N
SL-16 R/B 2.7 21:09:47 10° S 21:15:54 60° WSW 21:22:03 10° NNW
Cosmos 1606 2.7 21:13:59 10° N 21:17:52 90° ENE 21:21:42 10° S
AQUA 4.0 21:14:04 10° NNE 21:18:52 74° ESE 21:23:22 12° S
Cosmos 1763 Rocket 3.5 21:15:16 15° SSW 21:19:33 79° WNW 21:24:43 10° NNE
Helios 1B rocket 2.4 21:16:17 10° NNE 21:20:25 89° WNW 21:24:00 13° SSW
Cosmos 1437 2.9 21:18:23 10° N 21:21:09 57° ENE 21:23:54 10° SSE
FALCON 9 DEB 3.4 21:18:42 10° WNW 21:21:46 60° N 21:24:50 10° E
FALCON 9 DEB 3.5 21:19:34 10° W 21:22:39 59° N 21:25:46 10° E
Cosmos 1408 4.0 21:20:56 13° SW 21:23:35 27° WNW 21:26:47 10° N
NOSS 2-3 (C) 3.9 21:24:37 12° SW 21:28:35 71° NW 21:33:47 10° NE
FALCON 9 DEB 3.4 21:27:23 10° WNW 21:30:29 60° N 21:33:34 10° E
Cosmos 1943 3.3 21:27:08 12° SSW 21:32:18 80° ESE 21:37:58 10° NNE
Meteor 1-29 3.1 21:31:50 10° NNE 21:35:16 72° ESE 21:38:38 10° S
Meteor 1-28 Rocket 3.3 21:31:32 10° SSE 21:35:18 79° ENE 21:39:08 10° N
Cosmos 921 Rocket 3.3 21:31:42 10° S 21:35:50 60° ESE 21:39:58 10° NNE
Cosmos 1603 3.8 21:31:06 12° SSW 21:36:26 87° ESE 21:42:08 10° NNE
IRS-1D 4.0 21:31:58 10° NNE 21:37:08 61° ESE 21:42:09 10° S
CREW DRAGON DEMO-1 DEB 3.4 21:36:10 15° SSW 21:37:42 29° SSE 21:39:55 10° E
Cosmos 1943 Rocket 3.7 21:35:23 10° WNW 21:38:54 18° W 21:42:17 10° SW
NPP 3.8 21:36:49 10° N 21:42:11 65° WNW 21:47:30 10° SSW
Meteor 2-15 Rocket 4.5 21:36:29 10° NNW 21:42:40 78° W 21:48:46 10° S
Cosmos 1242 Rocket 3.1 21:41:23 10° NNW 21:44:45 40° W 21:48:08 10° SSW
Lacrosse 4 Rocket 1.6 21:41:16 10° NNW 21:45:25 74° NE 21:49:28 10° SE
Landsat 4 3.7 21:44:31 10° NNE 21:48:21 89° WNW 21:52:07 10° SSW
Cosmos 1092 Rocket 4.0 21:46:15 10° SSW 21:52:24 75° W 21:58:34 10° N
Cosmos 1076 Rocket 3.6 21:49:26 10° SSW 21:53:38 63° WNW 21:57:52 10° N
Cosmos 1782 3.7 21:50:23 10° N 21:54:17 50° ENE 21:58:11 10° SSE
Resurs 1-4 Rocket 2.8 21:50:32 10° N 21:55:30 42° WNW 22:00:29 10° SW
CZ-4C R/B 3.0 21:55:04 10° SSE 21:58:33 90° ENE 22:02:02 10° NNW
Cosmos 2221 3.8 21:55:20 10° NNW 21:58:50 24° W 22:02:18 10° SW
DELTA 2 DEB (DPAF) 4.3 21:54:29 10° S 21:58:52 56° WSW 22:03:16 10° NNW
SL-16 R/B 3.8 21:54:27 10° W 21:59:14 27° NW 22:04:02 10° NNE
NOSS 2-2 (E) 3.9 21:56:53 10° SSW 22:00:08 41° SE 22:03:46 10° NE
CZ-2D R/B 2.9 21:55:19 10° N 22:00:10 40° WNW 22:04:58 10° SW
Cosmos 2151 3.0 21:58:01 10° S 22:02:15 87° W 22:06:29 10° N
USA 229 DEB 3.9 21:55:50 10° WSW 22:02:19 68° NW 22:09:19 10° NE
USA 229 3.9 21:55:56 10° WSW 22:02:24 68° NW 22:09:25 10° NE
Cosmos 2298 Rocket 4.2 21:57:16 10° NNW 22:02:39 85° ENE 22:07:59 10° SSE
Cosmos 841 Rocket 3.6 21:58:34 10° SSW 22:03:42 70° WNW 22:08:52 10° NNE
Cosmos 1933 3.4 22:02:47 10° NNW 22:06:52 71° W 22:10:55 10° S
X-37B 1.8 22:04:12 10° SW 22:06:55 26° S 22:09:38 10° ESE
Cosmos 1633 3.1 22:08:19 10° SSW 22:11:40 41° WNW 22:15:03 10° N
Cosmos 540 Rocket 3.9 22:06:43 10° SW 22:11:43 53° WNW 22:16:45 10° NNE
NOSS 5 (C) 4.2 22:09:09 10° NW 22:12:11 79° SW 22:15:44 10° SE
NOSS 2-2 (C) 3.9 22:09:31 10° SSW 22:12:46 41° SE 22:16:21 10° NE
Cosmos 1328 Rocket 4.3 22:08:49 10° N 22:13:06 57° ENE 22:17:24 10° SSE
Cosmos 2369 Rocket 3.7 22:09:36 10° WNW 22:13:27 19° W 22:17:17 10° SW
NOSS 3-1 (C) 4.3 22:08:03 10° WSW 22:13:33 46° NNW 22:20:05 10° NE
BREEZE-M DEB (TANK) 1.6 22:12:00 10° W 22:14:16 44° SSW 22:16:45 10° ESE
IRIDIUM 104 4.4 22:10:05 10° N 22:15:20 77° W 22:20:32 10° S
ADEOS II 2.4 22:10:29 10° N 22:15:38 56° WNW 22:20:46 10° SW
USA 215 4.0 22:09:36 10° E 22:15:59 59° NNE 22:22:23 10° WNW
ASTEX 1 3.5 22:11:07 10° S 22:16:06 87° E 22:21:03 10° N
Cosmos 2150 Rocket 4.0 22:10:56 10° NNW 22:16:07 82° WSW 22:21:22 10° SSE
